Time,TemperatureF,DewpointF,PressureIn,WindDirection,WindDirectionDegrees,WindSpeedMPH,WindSpeedGustMPH,Humidity,HourlyPrecipIn,Conditions,Clouds,dailyrainin,SoftwareType,DateUTC
2013-01-28 00:00:00,20.6,18.1,30.48,WNW,285,0.0,0.0,90,0.00,,---,0.00,VWS V14.01,2013-01-28 05:00:00,
2013-01-28 00:01:00,20.6,18.1,30.48,WNW,285,0.0,0.0,90,0.00,,---,0.00,VWS V14.01,2013-01-28 05:01:00,
2013-01-28 00:03:00,20.5,18.0,30.48,WNW,285,0.0,0.0,90,0.00,,---,0.00,VWS V14.01,2013-01-28 05:03:00,
2013-01-28 00:04:00,20.5,18.0,30.48,WNW,285,0.0,0.0,90,0.00,,---,0.00,VWS V14.01,2013-01-28 05:04:00,
2013-01-28 00:09:00,20.4,17.9,30.48,WNW,285,0.0,0.0,90,0.00,,---,0.00,VWS V14.01,2013-01-28 05:09:00,
2013-01-28 00:14:00,20.3,17.8,30.48,WNW,285,0.0,0.0,90,0.00,,---,0.00,VWS V14.01,2013-01-28 05:14:00,
2013-01-28 00:19:00,20.2,17.7,30.48,WNW,285,0.0,0.0,90,0.00,,---,0.00,VWS V14.01,2013-01-28 05:19:00,
2013-01-28 00:24:00,20.2,17.7,30.48,WNW,285,0.0,0.0,90,0.00,,---,0.00,VWS V14.01,2013-01-28 05:24:00,
2013-01-28 00:29:00,20.1,17.6,30.49,WNW,285,0.0,0.0,90,0.00,,---,0.00,VWS V14.01,2013-01-28 05:29:00,
2013-01-28 00:30:00,20.1,17.6,30.49,WNW,285,0.0,0.0,90,0.00,,---,0.00,VWS V14.01,2013-01-28 05:30:00,
2013-01-28 00:34:00,20.0,17.5,30.49,WNW,285,0.0,0.0,90,0.00,,---,0.00,VWS V14.01,2013-01-28 05:34:00,
2013-01-28 00:39:00,20.0,17.5,30.49,WNW,285,0.0,0.0,90,0.00,,---,0.00,VWS V14.01,2013-01-28 05:39:00,
2013-01-28 00:44:00,19.9,17.5,30.49,WNW,285,0.0,0.0,90,0.00,,---,0.00,VWS V14.01,2013-01-28 05:44:00,
2013-01-28 00:49:00,19.9,17.5,30.50,WNW,285,0.0,0.0,90,0.00,,---,0.00,VWS V14.01,2013-01-28 05:49:00,
2013-01-28 00:54:00,19.8,17.4,30.49,WNW,285,0.0,0.0,90,0.00,,---,0.00,VWS V14.01,2013-01-28 05:54:00,
2013-01-28 00:59:00,19.7,17.2,30.49,WNW,285,0.0,0.0,90,0.00,,---,0.00,VWS V14.01,2013-01-28 05:59:00,
2013-01-28 01:00:00,19.7,17.2,30.49,WNW,285,0.0,0.0,90,0.00,,---,0.00,VWS V14.01,2013-01-28 06:00:00,
2013-01-28 01:04:00,19.6,17.1,30.49,WNW,285,0.0,0.0,90,0.00,,---,0.00,VWS V14.01,2013-01-28 06:04:00,
2013-01-28 01:09:00,19.7,17.5,30.49,WNW,285,0.0,0.0,91,0.00,,---,0.00,VWS V14.01,2013-01-28 06:09:00,
2013-01-28 01:14:00,19.7,17.5,30.49,WNW,285,0.0,0.0,91,0.00,,---,0.00,VWS V14.01,2013-01-28 06:14:00,
2013-01-28 01:19:00,19.9,17.7,30.49,WNW,285,0.0,0.0,91,0.00,,---,0.00,VWS V14.01,2013-01-28 06:19:00,
2013-01-28 01:24:00,20.0,18.0,30.50,WNW,285,0.0,0.0,92,0.00,,---,0.00,VWS V14.01,2013-01-28 06:24:00,
2013-01-28 01:29:00,20.2,18.2,30.49,WNW,285,0.0,0.0,92,0.00,,---,0.00,VWS V14.01,2013-01-28 06:29:00,
2013-01-28 01:30:00,20.2,18.2,30.49,WNW,285,0.0,0.0,92,0.00,,---,0.00,VWS V14.01,2013-01-28 06:30:00,
2013-01-28 01:34:00,20.3,18.4,30.49,WNW,285,0.0,0.0,92,0.00,,---,0.00,VWS V14.01,2013-01-28 06:34:00,
2013-01-28 01:39:00,20.3,18.4,30.49,WNW,285,0.0,0.0,92,0.00,,---,0.00,VWS V14.01,2013-01-28 06:39:00,
2013-01-28 01:44:00,20.4,18.5,30.49,WNW,285,0.0,0.0,92,0.00,,---,0.00,VWS V14.01,2013-01-28 06:44:00,
2013-01-28 01:49:00,20.5,18.5,30.49,WNW,285,0.0,0.0,92,0.00,,---,0.00,VWS V14.01,2013-01-28 06:49:00,
2013-01-28 01:54:00,20.6,18.6,30.48,WNW,285,0.0,0.0,92,0.00,,---,0.00,VWS V14.01,2013-01-28 06:54:00,
2013-01-28 01:59:00,20.7,18.8,30.48,WNW,285,0.0,0.0,92,0.00,,---,0.00,VWS V14.01,2013-01-28 06:59:00,
2013-01-28 02:00:00,20.7,18.8,30.48,WNW,285,0.0,0.0,92,0.00,,---,0.00,VWS V14.01,2013-01-28 07:00:00,
2013-01-28 02:04:00,20.8,18.9,30.48,WNW,285,0.0,0.0,92,0.00,,---,0.00,VWS V14.01,2013-01-28 07:04:00,
2013-01-28 02:09:00,20.9,19.0,30.48,WNW,285,0.0,0.0,92,0.00,,---,0.00,VWS V14.01,2013-01-28 07:09:00,
2013-01-28 02:14:00,21.0,19.0,30.47,WNW,285,0.0,0.0,92,0.00,,---,0.00,VWS V14.01,2013-01-28 07:14:00,
2013-01-28 02:19:00,21.4,19.4,30.47,WNW,285,0.0,0.0,92,0.00,,---,0.00,VWS V14.01,2013-01-28 07:19:00,
2013-01-28 02:24:00,21.8,20.1,30.47,WNW,285,0.0,0.0,93,0.00,,---,0.00,VWS V14.01,2013-01-28 07:24:00,
2013-01-28 02:29:00,22.1,20.4,30.46,WNW,285,0.0,0.0,93,0.00,,---,0.00,VWS V14.01,2013-01-28 07:29:00,
2013-01-28 02:30:00,22.1,20.4,30.46,WNW,285,0.0,0.0,93,0.00,,---,0.00,VWS V14.01,2013-01-28 07:30:00,
2013-01-28 02:34:00,22.3,20.6,30.46,WNW,285,0.0,0.0,93,0.00,,---,0.00,VWS V14.01,2013-01-28 07:34:00,
2013-01-28 02:39:00,22.5,20.5,30.46,WNW,285,0.0,0.0,92,0.00,,---,0.00,VWS V14.01,2013-01-28 07:39:00,
2013-01-28 02:44:00,22.6,20.6,30.46,WNW,285,0.0,0.0,92,0.00,,---,0.00,VWS V14.01,2013-01-28 07:44:00,
2013-01-28 02:49:00,22.7,20.7,30.46,WNW,285,0.0,0.0,92,0.00,,---,0.00,VWS V14.01,2013-01-28 07:49:00,
2013-01-28 02:54:00,22.7,20.7,30.45,WNW,285,0.0,0.0,92,0.00,,---,0.00,VWS V14.01,2013-01-28 07:54:00,
2013-01-28 02:59:00,22.7,20.7,30.45,WNW,285,0.0,0.0,92,0.00,,---,0.00,VWS V14.01,2013-01-28 07:59:00,
2013-01-28 03:00:00,22.7,20.7,30.45,WNW,285,0.0,0.0,92,0.00,,---,0.00,VWS V14.01,2013-01-28 08:00:00,
2013-01-28 03:04:00,22.7,20.5,30.45,WNW,285,0.0,0.0,91,0.00,,---,0.00,VWS V14.01,2013-01-28 08:04:00,
2013-01-28 03:09:00,22.6,20.4,30.44,WNW,285,0.0,0.0,91,0.00,,---,0.00,VWS V14.01,2013-01-28 08:09:00,
2013-01-28 03:14:00,22.6,20.4,30.44,WNW,285,0.0,0.0,91,0.00,,---,0.00,VWS V14.01,2013-01-28 08:14:00,
2013-01-28 03:19:00,22.6,20.4,30.43,WNW,285,0.0,0.0,91,0.00,,---,0.00,VWS V14.01,2013-01-28 08:19:00,
2013-01-28 03:24:00,22.7,20.7,30.43,WNW,285,0.0,0.0,92,0.00,,---,0.00,VWS V14.01,2013-01-28 08:24:00,
2013-01-28 03:29:00,22.8,20.8,30.44,WNW,285,0.0,0.0,92,0.00,,---,0.00,VWS V14.01,2013-01-28 08:29:00,
2013-01-28 03:30:00,22.8,20.8,30.44,WNW,285,0.0,0.0,92,0.00,,---,0.00,VWS V14.01,2013-01-28 08:30:00,
2013-01-28 03:34:00,22.8,20.8,30.44,WNW,285,0.0,0.0,92,0.00,,---,0.00,VWS V14.01,2013-01-28 08:34:00,
2013-01-28 03:39:00,23.0,21.0,30.43,WNW,285,0.0,0.0,92,0.00,,---,0.00,VWS V14.01,2013-01-28 08:39:00,
2013-01-28 03:44:00,23.2,21.2,30.43,WNW,285,0.0,0.0,92,0.00,,---,0.00,VWS V14.01,2013-01-28 08:44:00,
2013-01-28 03:49:00,23.3,21.3,30.43,WNW,285,0.0,0.0,92,0.00,,---,0.00,VWS V14.01,2013-01-28 08:49:00,
2013-01-28 03:54:00,23.5,21.5,30.43,WNW,285,0.0,0.0,92,0.00,,---,0.00,VWS V14.01,2013-01-28 08:54:00,
2013-01-28 03:59:00,23.7,22.0,30.43,WNW,285,0.0,0.0,93,0.00,,---,0.00,VWS V14.01,2013-01-28 08:59:00,
2013-01-28 04:00:00,23.7,22.0,30.43,WNW,285,0.0,0.0,93,0.00,,---,0.00,VWS V14.01,2013-01-28 09:00:00,
2013-01-28 04:04:00,23.9,21.9,30.43,WNW,285,0.0,0.0,92,0.00,,---,0.00,VWS V14.01,2013-01-28 09:04:00,
2013-01-28 04:09:00,24.0,22.0,30.43,WNW,285,0.0,0.0,92,0.00,,---,0.00,VWS V14.01,2013-01-28 09:09:00,
2013-01-28 04:14:00,24.2,22.5,30.43,WNW,285,0.0,0.0,93,0.00,,---,0.00,VWS V14.01,2013-01-28 09:14:00,
2013-01-28 04:19:00,24.3,22.3,30.43,WNW,285,0.0,0.0,92,0.00,,---,0.00,VWS V14.01,2013-01-28 09:19:00,
2013-01-28 04:23:00,24.5,22.5,30.43,WNW,285,0.0,0.0,92,0.00,,---,0.00,VWS V14.01,2013-01-28 09:23:00,
2013-01-28 04:28:00,24.6,22.6,30.43,WNW,285,0.0,0.0,92,0.00,,---,0.00,VWS V14.01,2013-01-28 09:28:00,
2013-01-28 04:30:00,24.7,22.7,30.43,WNW,285,0.0,0.0,92,0.00,,---,0.00,VWS V14.01,2013-01-28 09:30:00,
2013-01-28 04:33:00,24.7,23.0,30.43,WNW,285,0.0,0.0,93,0.00,,---,0.00,VWS V14.01,2013-01-28 09:33:00,
2013-01-28 04:38:00,24.9,23.2,30.42,WNW,285,0.0,0.0,93,0.00,,---,0.00,VWS V14.01,2013-01-28 09:38:00,
2013-01-28 04:43:00,25.1,23.1,30.42,WNW,285,0.0,0.0,92,0.00,,---,0.00,VWS V14.01,2013-01-28 09:43:00,
2013-01-28 04:48:00,25.2,23.2,30.42,WNW,285,0.0,0.0,92,0.00,,---,0.00,VWS V14.01,2013-01-28 09:48:00,
2013-01-28 04:53:00,25.4,23.4,30.42,WNW,285,0.0,0.0,92,0.00,,---,0.00,VWS V14.01,2013-01-28 09:53:00,
2013-01-28 04:58:00,25.5,23.5,30.42,WNW,285,0.0,0.0,92,0.00,,---,0.00,VWS V14.01,2013-01-28 09:58:00,
2013-01-28 05:00:00,25.5,23.5,30.42,WNW,285,0.0,0.0,92,0.00,,---,0.00,VWS V14.01,2013-01-28 10:00:00,
2013-01-28 05:03:00,25.7,23.7,30.42,WNW,285,0.0,0.0,92,0.00,,---,0.00,VWS V14.01,2013-01-28 10:03:00,
2013-01-28 05:08:00,25.9,23.9,30.41,WNW,285,0.0,0.0,92,0.00,,---,0.00,VWS V14.01,2013-01-28 10:08:00,
2013-01-28 05:13:00,26.1,24.1,30.41,WNW,285,0.0,0.0,92,0.00,,---,0.00,VWS V14.01,2013-01-28 10:13:00,
2013-01-28 05:18:00,26.2,24.2,30.41,WNW,285,0.0,0.0,92,0.00,,---,0.00,VWS V14.01,2013-01-28 10:18:00,
2013-01-28 05:23:00,26.4,24.4,30.42,WNW,285,0.0,0.0,92,0.00,,---,0.00,VWS V14.01,2013-01-28 10:23:00,
2013-01-28 05:28:00,26.5,24.5,30.42,WNW,285,0.0,0.0,92,0.00,,---,0.00,VWS V14.01,2013-01-28 10:28:00,
2013-01-28 05:30:00,26.5,24.5,30.42,WNW,285,0.0,0.0,92,0.00,,---,0.00,VWS V14.01,2013-01-28 10:30:00,
2013-01-28 05:33:00,26.6,24.6,30.42,WNW,285,0.0,0.0,92,0.00,,---,0.00,VWS V14.01,2013-01-28 10:33:00,
2013-01-28 05:38:00,26.7,24.4,30.41,WNW,285,0.0,0.0,91,0.00,,---,0.00,VWS V14.01,2013-01-28 10:38:00,
2013-01-28 05:43:00,26.8,24.5,30.42,WNW,285,0.0,0.0,91,0.00,,---,0.00,VWS V14.01,2013-01-28 10:43:00,
2013-01-28 05:48:00,26.9,24.6,30.42,WNW,285,0.0,0.0,91,0.00,,---,0.00,VWS V14.01,2013-01-28 10:48:00,
2013-01-28 05:53:00,27.0,24.7,30.42,WNW,285,0.0,0.0,91,0.00,,---,0.00,VWS V14.01,2013-01-28 10:53:00,
2013-01-28 05:58:00,27.1,24.8,30.41,WNW,285,0.0,0.0,91,0.00,,---,0.00,VWS V14.01,2013-01-28 10:58:00,
2013-01-28 06:00:00,27.1,24.8,30.41,WNW,285,0.0,0.0,91,0.00,,---,0.00,VWS V14.01,2013-01-28 11:00:00,
2013-01-28 06:03:00,27.2,24.9,30.41,WNW,285,0.0,0.0,91,0.00,,---,0.00,VWS V14.01,2013-01-28 11:03:00,
2013-01-28 06:08:00,27.2,24.9,30.41,WNW,285,0.0,0.0,91,0.00,,---,0.00,VWS V14.01,2013-01-28 11:08:00,
2013-01-28 06:13:00,27.4,25.1,30.41,WNW,285,0.0,0.0,91,0.00,,---,0.00,VWS V14.01,2013-01-28 11:13:00,
2013-01-28 06:18:00,27.5,25.0,30.41,WNW,285,0.0,0.0,90,0.00,,---,0.00,VWS V14.01,2013-01-28 11:18:00,
2013-01-28 06:23:00,27.6,25.1,30.41,WNW,285,0.0,0.0,90,0.00,,---,0.00,VWS V14.01,2013-01-28 11:23:00,
2013-01-28 06:28:00,27.6,25.1,30.41,WNW,285,0.0,0.0,90,0.00,,---,0.00,VWS V14.01,2013-01-28 11:28:00,
2013-01-28 06:30:00,27.6,25.1,30.41,WNW,285,0.0,0.0,90,0.00,,---,0.00,VWS V14.01,2013-01-28 11:30:00,
2013-01-28 06:33:00,27.7,25.2,30.41,WNW,285,0.0,0.0,90,0.00,,---,0.00,VWS V14.01,2013-01-28 11:33:00,
2013-01-28 06:38:00,27.8,25.2,30.41,WNW,285,0.0,0.0,90,0.00,,---,0.00,VWS V14.01,2013-01-28 11:38:00,
2013-01-28 06:43:00,27.8,25.2,30.41,WNW,285,0.0,0.0,90,0.00,,---,0.00,VWS V14.01,2013-01-28 11:43:00,
2013-01-28 06:48:00,27.9,25.4,30.41,WNW,285,0.0,0.0,90,0.00,,---,0.00,VWS V14.01,2013-01-28 11:48:00,
2013-01-28 06:53:00,28.0,25.7,30.41,WNW,285,0.0,0.0,91,0.00,,---,0.00,VWS V14.01,2013-01-28 11:53:00,
2013-01-28 06:58:00,28.2,25.9,30.41,WNW,285,0.0,0.0,91,0.00,,---,0.00,VWS V14.01,2013-01-28 11:58:00,
2013-01-28 07:00:00,28.2,25.9,30.42,WSW,258,0.0,0.0,91,0.00,,---,0.00,VWS V14.01,2013-01-28 12:00:00,
2013-01-28 07:03:00,28.4,26.1,30.41,WSW,256,0.0,4.0,91,0.00,,---,0.00,VWS V14.01,2013-01-28 12:03:00,
2013-01-28 07:08:00,28.7,26.4,30.41,SSW,197,0.0,4.0,91,0.00,,---,0.00,VWS V14.01,2013-01-28 12:08:00,
2013-01-28 07:13:00,29.1,26.8,30.41,NW,309,0.0,4.0,91,0.00,,---,0.00,VWS V14.01,2013-01-28 12:13:00,
2013-01-28 07:18:00,29.4,27.1,30.41,WNW,294,2.0,4.0,91,0.00,,---,0.00,VWS V14.01,2013-01-28 12:18:00,
2013-01-28 07:23:00,29.7,27.4,30.42,ENE,59,0.0,4.0,91,0.00,,---,0.00,VWS V14.01,2013-01-28 12:23:00,
2013-01-28 07:28:00,30.0,27.7,30.41,ENE,59,0.0,4.0,91,0.00,,---,0.00,VWS V14.01,2013-01-28 12:28:00,
2013-01-28 07:30:00,30.1,27.8,30.41,ENE,59,0.0,4.0,91,0.00,,---,0.00,VWS V14.01,2013-01-28 12:30:00,
2013-01-28 07:33:00,30.3,28.0,30.41,ENE,59,0.0,0.0,91,0.00,,---,0.00,VWS V14.01,2013-01-28 12:33:00,
2013-01-28 07:38:00,30.4,28.1,30.41,ENE,59,0.0,0.0,91,0.00,,---,0.00,VWS V14.01,2013-01-28 12:38:00,
2013-01-28 07:43:00,30.5,28.2,30.41,ENE,59,0.0,1.0,91,0.00,,---,0.00,VWS V14.01,2013-01-28 12:43:00,
2013-01-28 07:48:00,30.6,28.3,30.41,NNE,25,0.0,2.0,91,0.00,,---,0.00,VWS V14.01,2013-01-28 12:48:00,
2013-01-28 07:53:00,30.7,28.4,30.41,NNE,25,0.0,2.0,91,0.00,,---,0.00,VWS V14.01,2013-01-28 12:53:00,
2013-01-28 07:58:00,30.8,28.5,30.41,NNE,25,0.0,2.0,91,0.00,,---,0.00,VWS V14.01,2013-01-28 12:58:00,
2013-01-28 08:00:00,30.8,28.5,30.41,NNE,25,0.0,2.0,91,0.00,,---,0.00,VWS V14.01,2013-01-28 13:00:00,
2013-01-28 08:03:00,30.8,28.5,30.41,NNE,25,0.0,0.0,91,0.00,,---,0.00,VWS V14.01,2013-01-28 13:03:00,
2013-01-28 08:08:00,30.8,28.5,30.41,NNE,25,0.0,0.0,91,0.00,,---,0.00,VWS V14.01,2013-01-28 13:08:00,
2013-01-28 08:13:00,30.8,28.5,30.41,NNE,25,0.0,0.0,91,0.00,,---,0.00,VWS V14.01,2013-01-28 13:13:00,
2013-01-28 08:18:00,30.9,28.6,30.41,NNE,25,0.0,0.0,91,0.00,,---,0.00,VWS V14.01,2013-01-28 13:18:00,
2013-01-28 08:23:00,30.9,28.6,30.41,West,267,0.0,1.0,91,0.00,,---,0.00,VWS V14.01,2013-01-28 13:23:00,
2013-01-28 08:28:00,31.1,29.0,30.41,SSW,206,0.0,3.0,92,0.00,,---,0.00,VWS V14.01,2013-01-28 13:28:00,
2013-01-28 08:30:00,31.1,29.0,30.41,SW,231,0.0,3.0,92,0.00,,---,0.00,VWS V14.01,2013-01-28 13:30:00,
2013-01-28 08:33:00,31.2,29.1,30.41,SSW,193,0.0,0.0,92,0.00,,---,0.00,VWS V14.01,2013-01-28 13:33:00,
2013-01-28 08:38:00,31.5,29.7,30.41,South,178,2.0,2.0,93,0.00,,---,0.00,VWS V14.01,2013-01-28 13:38:00,
2013-01-28 08:43:00,31.7,29.9,30.41,NNW,329,0.0,2.0,93,0.00,,---,0.00,VWS V14.01,2013-01-28 13:43:00,
2013-01-28 08:48:00,31.9,30.1,30.41,NNW,333,0.0,2.0,93,0.00,,---,0.00,VWS V14.01,2013-01-28 13:48:00,
2013-01-28 08:53:00,32.1,30.3,30.41,NNE,27,0.0,2.0,93,0.00,,---,0.00,VWS V14.01,2013-01-28 13:53:00,
2013-01-28 08:58:00,32.3,30.5,30.41,South,187,2.0,4.0,93,0.00,,---,0.00,VWS V14.01,2013-01-28 13:58:00,
2013-01-28 09:00:00,32.3,30.5,30.41,WNW,284,0.0,4.0,93,0.00,,---,0.00,VWS V14.01,2013-01-28 14:00:00,
2013-01-28 09:03:00,32.4,30.6,30.41,North,350,0.0,4.0,93,0.00,,---,0.00,VWS V14.01,2013-01-28 14:03:00,
2013-01-28 09:08:00,32.5,30.7,30.40,SW,230,1.0,4.0,93,0.00,,---,0.00,VWS V14.01,2013-01-28 14:08:00,
2013-01-28 09:13:00,32.6,30.8,30.40,NW,319,0.0,4.0,93,0.00,,---,0.00,VWS V14.01,2013-01-28 14:13:00,
2013-01-28 09:18:00,32.7,30.9,30.40,North,355,0.0,4.0,93,0.00,,---,0.00,VWS V14.01,2013-01-28 14:18:00,
2013-01-28 09:23:00,32.9,31.1,30.40,SE,130,0.0,4.0,93,0.00,,---,0.00,VWS V14.01,2013-01-28 14:23:00,
2013-01-28 09:28:00,33.1,31.3,30.40,NE,39,0.0,4.0,93,0.00,,---,0.00,VWS V14.01,2013-01-28 14:28:00,
2013-01-28 09:30:00,33.1,31.3,30.40,NE,39,0.0,4.0,93,0.00,,---,0.00,VWS V14.01,2013-01-28 14:30:00,
2013-01-28 09:33:00,33.2,31.4,30.39,NE,39,0.0,1.0,93,0.00,,---,0.00,VWS V14.01,2013-01-28 14:33:00,
2013-01-28 09:38:00,33.3,31.5,30.39,SSE,157,1.0,2.0,93,0.00,,---,0.00,VWS V14.01,2013-01-28 14:38:00,
2013-01-28 09:43:00,33.4,31.3,30.38,NNW,336,0.0,5.0,92,0.00,,---,0.00,VWS V14.01,2013-01-28 14:43:00,
2013-01-28 09:48:00,33.4,31.3,30.38,SSE,150,2.0,5.0,92,0.00,,---,0.00,VWS V14.01,2013-01-28 14:48:00,
2013-01-28 09:53:00,33.5,31.4,30.37,SW,226,0.0,5.0,92,0.00,,---,0.00,VWS V14.01,2013-01-28 14:53:00,
2013-01-28 09:58:00,33.6,31.5,30.36,SSE,153,0.0,5.0,92,0.00,,---,0.00,VWS V14.01,2013-01-28 14:58:00,
2013-01-28 10:00:00,33.6,31.5,30.36,SE,144,0.0,5.0,92,0.00,,---,0.00,VWS V14.01,2013-01-28 15:00:00,
2013-01-28 10:03:00,33.7,31.9,30.35,South,175,2.0,4.0,93,0.00,,---,0.00,VWS V14.01,2013-01-28 15:03:00,
2013-01-28 10:08:00,33.9,32.1,30.36,WSW,242,0.0,5.0,93,0.00,,---,0.00,VWS V14.01,2013-01-28 15:08:00,
2013-01-28 10:13:00,34.0,31.9,30.36,SE,140,1.0,5.0,92,0.01,,---,0.01,VWS V14.01,2013-01-28 15:13:00,
2013-01-28 10:18:00,34.3,32.2,30.36,SE,144,0.0,5.0,92,0.01,,---,0.01,VWS V14.01,2013-01-28 15:18:00,
2013-01-28 10:23:00,34.5,32.4,30.37,West,268,2.0,5.0,92,0.01,,---,0.01,VWS V14.01,2013-01-28 15:23:00,
2013-01-28 10:28:00,34.6,32.2,30.37,WNW,287,3.0,5.0,91,0.01,,---,0.01,VWS V14.01,2013-01-28 15:28:00,
2013-01-28 10:30:00,34.7,32.1,30.37,ENE,77,1.0,5.0,90,0.01,,---,0.01,VWS V14.01,2013-01-28 15:30:00,
2013-01-28 10:33:00,34.7,32.1,30.37,West,272,5.0,7.0,90,0.01,,---,0.01,VWS V14.01,2013-01-28 15:33:00,
2013-01-28 10:38:00,34.8,31.9,30.37,SE,129,0.0,7.0,89,0.01,,---,0.01,VWS V14.01,2013-01-28 15:38:00,
2013-01-28 10:43:00,34.9,32.0,30.36,NE,45,2.0,7.0,89,0.01,,---,0.01,VWS V14.01,2013-01-28 15:43:00,
2013-01-28 10:48:00,35.0,31.8,30.36,SW,217,5.0,7.0,88,0.01,,---,0.01,VWS V14.01,2013-01-28 15:48:00,
2013-01-28 10:53:00,35.1,31.6,30.36,WNW,291,1.0,7.0,87,0.01,,---,0.01,VWS V14.01,2013-01-28 15:53:00,
2013-01-28 10:58:00,35.1,31.6,30.35,South,186,1.0,7.0,87,0.01,,---,0.01,VWS V14.01,2013-01-28 15:58:00,
2013-01-28 11:00:00,35.2,31.7,30.35,WSW,242,2.0,7.0,87,0.01,,---,0.01,VWS V14.01,2013-01-28 16:00:00,
2013-01-28 11:03:00,35.2,31.7,30.35,South,190,1.0,3.0,87,0.01,,---,0.01,VWS V14.01,2013-01-28 16:03:00,
2013-01-28 11:08:00,35.3,31.8,30.34,SE,132,1.0,5.0,87,0.01,,---,0.01,VWS V14.01,2013-01-28 16:08:00,
2013-01-28 11:13:00,35.3,31.8,30.34,WNW,293,1.0,6.0,87,0.01,,---,0.01,VWS V14.01,2013-01-28 16:13:00,
2013-01-28 11:18:00,35.2,31.7,30.34,NNE,32,1.0,6.0,87,0.01,,---,0.01,VWS V14.01,2013-01-28 16:18:00,
2013-01-28 11:23:00,35.2,32.0,30.33,NNW,346,1.0,6.0,88,0.01,,---,0.01,VWS V14.01,2013-01-28 16:23:00,
2013-01-28 11:28:00,35.2,32.0,30.33,WSW,251,2.0,6.0,88,0.01,,---,0.01,VWS V14.01,2013-01-28 16:28:00,
2013-01-28 11:30:00,35.1,32.2,30.33,West,279,0.0,6.0,89,0.01,,---,0.01,VWS V14.01,2013-01-28 16:30:00,
2013-01-28 11:33:00,35.1,32.2,30.32,South,184,0.0,4.0,89,0.01,,---,0.02,VWS V14.01,2013-01-28 16:33:00,
2013-01-28 11:38:00,35.1,32.5,30.31,South,175,0.0,4.0,90,0.01,,---,0.02,VWS V14.01,2013-01-28 16:38:00,
2013-01-28 11:43:00,35.0,32.4,30.31,SSW,210,4.0,5.0,90,0.01,,---,0.02,VWS V14.01,2013-01-28 16:43:00,
2013-01-28 11:48:00,34.9,32.5,30.30,WNW,283,1.0,7.0,91,0.01,,---,0.02,VWS V14.01,2013-01-28 16:48:00,
2013-01-28 11:53:00,34.8,32.5,30.30,North,355,1.0,7.0,91,0.01,,---,0.02,VWS V14.01,2013-01-28 16:53:00,
2013-01-28 11:58:00,34.7,32.3,30.29,SSW,203,4.0,7.0,91,0.01,,---,0.02,VWS V14.01,2013-01-28 16:58:00,
2013-01-28 12:00:00,34.7,32.3,30.29,ESE,123,0.0,7.0,91,0.01,,---,0.02,VWS V14.01,2013-01-28 17:00:00,
2013-01-28 12:03:00,34.7,32.6,30.28,SE,128,0.0,3.0,92,0.01,,---,0.02,VWS V14.01,2013-01-28 17:03:00,
2013-01-28 12:08:00,34.8,32.7,30.28,SSE,158,0.0,4.0,92,0.01,,---,0.02,VWS V14.01,2013-01-28 17:08:00,
2013-01-28 12:13:00,34.8,32.7,30.27,SE,143,0.0,4.0,92,0.01,,---,0.02,VWS V14.01,2013-01-28 17:13:00,
2013-01-28 12:18:00,34.8,32.7,30.27,ENE,68,1.0,4.0,92,0.01,,---,0.02,VWS V14.01,2013-01-28 17:18:00,
2013-01-28 12:23:00,34.8,32.7,30.26,ESE,115,0.0,4.0,92,0.02,,---,0.03,VWS V14.01,2013-01-28 17:23:00,
2013-01-28 12:28:00,34.7,32.9,30.26,SSE,153,0.0,4.0,93,0.02,,---,0.03,VWS V14.01,2013-01-28 17:28:00,
2013-01-28 12:30:00,34.7,32.9,30.26,WSW,247,1.0,4.0,93,0.02,,---,0.03,VWS V14.01,2013-01-28 17:30:00,
2013-01-28 12:33:00,34.8,33.0,30.25,South,174,3.0,3.0,93,0.02,,---,0.03,VWS V14.01,2013-01-28 17:33:00,
2013-01-28 12:38:00,34.8,33.0,30.25,NW,313,0.0,3.0,93,0.03,,---,0.04,VWS V14.01,2013-01-28 17:38:00,
2013-01-28 12:43:00,35.0,33.5,30.25,SSE,149,0.0,3.0,94,0.03,,---,0.04,VWS V14.01,2013-01-28 17:43:00,
2013-01-28 12:48:00,35.0,33.5,30.24,East,90,1.0,3.0,94,0.03,,---,0.04,VWS V14.01,2013-01-28 17:48:00,
2013-01-28 12:53:00,35.1,33.3,30.24,SW,233,0.0,4.0,93,0.03,,---,0.04,VWS V14.01,2013-01-28 17:53:00,
2013-01-28 12:58:00,35.0,33.2,30.23,SSE,150,0.0,4.0,93,0.03,,---,0.04,VWS V14.01,2013-01-28 17:58:00,
2013-01-28 13:00:00,34.9,33.3,30.23,ENE,60,0.0,4.0,94,0.03,,---,0.04,VWS V14.01,2013-01-28 18:00:00,
2013-01-28 13:03:00,34.9,33.3,30.22,WSW,246,0.0,5.0,94,0.02,,---,0.04,VWS V14.01,2013-01-28 18:03:00,
2013-01-28 13:08:00,34.8,33.0,30.21,East,87,2.0,5.0,93,0.02,,---,0.04,VWS V14.01,2013-01-28 18:08:00,
2013-01-28 13:13:00,34.8,33.2,30.21,East,97,2.0,5.0,94,0.02,,---,0.04,VWS V14.01,2013-01-28 18:13:00,
2013-01-28 13:17:00,34.8,33.2,30.20,SE,133,1.0,5.0,94,0.02,,---,0.04,VWS V14.01,2013-01-28 18:17:00,
2013-01-28 13:23:00,34.9,33.3,30.19,SW,219,2.0,5.0,94,0.02,,---,0.04,VWS V14.01,2013-01-28 18:23:00,
2013-01-28 13:28:00,34.9,33.3,30.19,South,174,1.0,5.0,94,0.02,,---,0.04,VWS V14.01,2013-01-28 18:28:00,
2013-01-28 13:30:00,34.9,33.3,30.19,ESE,105,0.0,5.0,94,0.02,,---,0.04,VWS V14.01,2013-01-28 18:30:00,
2013-01-28 13:33:00,34.9,33.3,30.19,NW,314,0.0,5.0,94,0.01,,---,0.04,VWS V14.01,2013-01-28 18:33:00,
2013-01-28 13:37:00,35.0,33.5,30.18,SSW,199,0.0,5.0,94,0.01,,---,0.04,VWS V14.01,2013-01-28 18:37:00,
2013-01-28 13:42:00,35.2,33.7,30.17,SW,226,0.0,6.0,94,0.01,,---,0.04,VWS V14.01,2013-01-28 18:42:00,
2013-01-28 13:47:00,35.3,33.8,30.17,NE,52,2.0,6.0,94,0.01,,---,0.04,VWS V14.01,2013-01-28 18:47:00,
2013-01-28 13:52:00,35.4,34.1,30.16,NE,52,0.0,6.0,95,0.01,,---,0.04,VWS V14.01,2013-01-28 18:52:00,
2013-01-28 13:57:00,35.5,34.2,30.16,ENE,63,1.0,6.0,95,0.01,,---,0.04,VWS V14.01,2013-01-28 18:57:00,
2013-01-28 14:00:00,35.6,34.0,30.16,ESE,123,0.0,6.0,94,0.01,,---,0.04,VWS V14.01,2013-01-28 19:00:00,
2013-01-28 14:02:00,35.7,34.2,30.17,WNW,302,4.0,4.0,94,0.00,,---,0.04,VWS V14.01,2013-01-28 19:02:00,
2013-01-28 14:07:00,35.8,34.2,30.16,SE,125,0.0,6.0,94,0.00,,---,0.04,VWS V14.01,2013-01-28 19:07:00,
2013-01-28 14:12:00,36.0,34.7,30.15,WNW,283,0.0,6.0,95,0.00,,---,0.04,VWS V14.01,2013-01-28 19:12:00,
2013-01-28 14:17:00,36.3,34.7,30.15,SSE,165,0.0,6.0,94,0.00,,---,0.04,VWS V14.01,2013-01-28 19:17:00,
2013-01-28 14:22:00,36.4,34.8,30.15,East,86,2.0,6.0,94,0.00,,---,0.04,VWS V14.01,2013-01-28 19:22:00,
2013-01-28 14:27:00,36.4,34.8,30.15,SSE,153,0.0,6.0,94,0.00,,---,0.04,VWS V14.01,2013-01-28 19:27:00,
2013-01-28 14:30:00,36.4,34.8,30.14,SSE,161,0.0,6.0,94,0.00,,---,0.04,VWS V14.01,2013-01-28 19:30:00,
2013-01-28 14:32:00,36.5,34.9,30.15,NNW,327,1.0,6.0,94,0.00,,---,0.04,VWS V14.01,2013-01-28 19:32:00,
2013-01-28 14:37:00,36.5,34.9,30.16,WSW,257,0.0,6.0,94,0.00,,---,0.04,VWS V14.01,2013-01-28 19:37:00,
2013-01-28 14:42:00,36.5,34.7,30.15,NE,40,0.0,6.0,93,0.00,,---,0.04,VWS V14.01,2013-01-28 19:42:00,
2013-01-28 14:47:00,36.6,34.8,30.15,South,172,0.0,6.0,93,0.00,,---,0.04,VWS V14.01,2013-01-28 19:47:00,
2013-01-28 14:52:00,36.8,35.2,30.14,West,273,2.0,6.0,94,0.00,,---,0.04,VWS V14.01,2013-01-28 19:52:00,
2013-01-28 14:57:00,37.0,35.4,30.13,SE,140,0.0,6.0,94,0.00,,---,0.04,VWS V14.01,2013-01-28 19:57:00,
2013-01-28 15:00:00,37.1,35.5,30.12,SSE,164,1.0,6.0,94,0.00,,---,0.04,VWS V14.01,2013-01-28 20:00:00,
2013-01-28 15:02:00,37.1,35.5,30.12,SSW,206,0.0,2.0,94,0.00,,---,0.04,VWS V14.01,2013-01-28 20:02:00,
2013-01-28 15:07:00,37.1,35.5,30.12,South,180,1.0,5.0,94,0.00,,---,0.04,VWS V14.01,2013-01-28 20:07:00,
2013-01-28 15:12:00,37.1,35.3,30.12,SSW,205,0.0,5.0,93,0.00,,---,0.04,VWS V14.01,2013-01-28 20:12:00,
2013-01-28 15:17:00,37.1,35.3,30.12,SSE,158,0.0,5.0,93,0.00,,---,0.04,VWS V14.01,2013-01-28 20:17:00,
2013-01-28 15:22:00,37.0,35.2,30.11,SSE,158,0.0,5.0,93,0.00,,---,0.04,VWS V14.01,2013-01-28 20:22:00,
2013-01-28 15:27:00,36.9,35.1,30.10,SSE,161,0.0,5.0,93,0.00,,---,0.04,VWS V14.01,2013-01-28 20:27:00,
2013-01-28 15:30:00,36.9,35.1,30.10,North,350,0.0,5.0,93,0.00,,---,0.04,VWS V14.01,2013-01-28 20:30:00,
2013-01-28 15:32:00,36.9,35.1,30.10,ENE,65,0.0,1.0,93,0.00,,---,0.04,VWS V14.01,2013-01-28 20:32:00,
2013-01-28 15:37:00,36.8,35.0,30.10,East,89,0.0,3.0,93,0.00,,---,0.04,VWS V14.01,2013-01-28 20:37:00,
2013-01-28 15:42:00,36.8,35.2,30.09,SW,225,0.0,3.0,94,0.00,,---,0.04,VWS V14.01,2013-01-28 20:42:00,
2013-01-28 15:47:00,36.8,35.2,30.10,South,170,0.0,3.0,94,0.00,,---,0.04,VWS V14.01,2013-01-28 20:47:00,
2013-01-28 15:52:00,36.8,35.2,30.10,WNW,284,0.0,3.0,94,0.00,,---,0.04,VWS V14.01,2013-01-28 20:52:00,
2013-01-28 15:57:00,36.8,35.2,30.11,South,180,0.0,3.0,94,0.00,,---,0.04,VWS V14.01,2013-01-28 20:57:00,
2013-01-28 16:00:00,36.9,35.3,30.11,ESE,109,0.0,3.0,94,0.00,,---,0.04,VWS V14.01,2013-01-28 21:00:00,
2013-01-28 16:02:00,36.9,35.3,30.11,NW,317,0.0,2.0,94,0.00,,---,0.04,VWS V14.01,2013-01-28 21:02:00,
2013-01-28 16:07:00,36.9,35.3,30.11,NW,317,0.0,2.0,94,0.00,,---,0.04,VWS V14.01,2013-01-28 21:07:00,
2013-01-28 16:12:00,36.9,35.3,30.10,NW,317,0.0,2.0,94,0.00,,---,0.04,VWS V14.01,2013-01-28 21:12:00,
2013-01-28 16:17:00,36.9,35.3,30.09,NW,317,0.0,2.0,94,0.00,,---,0.04,VWS V14.01,2013-01-28 21:17:00,
2013-01-28 16:22:00,36.8,35.2,30.10,NW,313,0.0,2.0,94,0.00,,---,0.04,VWS V14.01,2013-01-28 21:22:00,
2013-01-28 16:27:00,36.8,35.2,30.09,NW,313,0.0,2.0,94,0.00,,---,0.04,VWS V14.01,2013-01-28 21:27:00,
2013-01-28 16:30:00,36.8,35.2,30.09,NW,313,0.0,2.0,94,0.00,,---,0.04,VWS V14.01,2013-01-28 21:30:00,
2013-01-28 16:32:00,36.8,35.2,30.09,NW,325,0.0,2.0,94,0.00,,---,0.04,VWS V14.01,2013-01-28 21:32:00,
2013-01-28 16:37:00,36.8,35.2,30.09,NW,325,0.0,2.0,94,0.00,,---,0.04,VWS V14.01,2013-01-28 21:37:00,
2013-01-28 16:42:00,36.8,35.2,30.09,NW,325,0.0,2.0,94,0.00,,---,0.04,VWS V14.01,2013-01-28 21:42:00,
2013-01-28 16:47:00,36.7,35.1,30.09,NW,325,0.0,2.0,94,0.00,,---,0.04,VWS V14.01,2013-01-28 21:47:00,
2013-01-28 16:52:00,36.7,35.1,30.09,NW,325,0.0,2.0,94,0.00,,---,0.04,VWS V14.01,2013-01-28 21:52:00,
2013-01-28 16:57:00,36.7,35.1,30.09,NW,325,0.0,2.0,94,0.00,,---,0.04,VWS V14.01,2013-01-28 21:57:00,
2013-01-28 17:00:00,36.7,35.1,30.09,NW,325,0.0,2.0,94,0.00,,---,0.04,VWS V14.01,2013-01-28 22:00:00,
2013-01-28 17:02:00,36.6,35.0,30.09,NW,325,0.0,0.0,94,0.00,,---,0.04,VWS V14.01,2013-01-28 22:02:00,
2013-01-28 17:07:00,36.6,35.0,30.09,NW,325,0.0,0.0,94,0.00,,---,0.04,VWS V14.01,2013-01-28 22:07:00,
2013-01-28 17:12:00,36.5,34.9,30.10,NW,325,0.0,0.0,94,0.00,,---,0.04,VWS V14.01,2013-01-28 22:12:00,
2013-01-28 17:17:00,36.5,34.9,30.09,NW,325,0.0,0.0,94,0.00,,---,0.04,VWS V14.01,2013-01-28 22:17:00,
2013-01-28 17:22:00,36.4,34.8,30.10,NW,325,0.0,0.0,94,0.00,,---,0.04,VWS V14.01,2013-01-28 22:22:00,
2013-01-28 17:27:00,36.3,34.7,30.09,NW,325,0.0,0.0,94,0.00,,---,0.04,VWS V14.01,2013-01-28 22:27:00,
2013-01-28 17:30:00,36.3,34.7,30.09,NW,325,0.0,0.0,94,0.00,,---,0.04,VWS V14.01,2013-01-28 22:30:00,
2013-01-28 17:32:00,36.3,34.7,30.09,NW,325,0.0,0.0,94,0.00,,---,0.04,VWS V14.01,2013-01-28 22:32:00,
2013-01-28 17:37:00,36.2,34.6,30.09,NW,325,0.0,0.0,94,0.01,,---,0.05,VWS V14.01,2013-01-28 22:37:00,
2013-01-28 17:42:00,36.2,34.6,30.09,NW,325,0.0,0.0,94,0.01,,---,0.05,VWS V14.01,2013-01-28 22:42:00,
2013-01-28 17:47:00,36.1,34.5,30.08,NW,325,0.0,0.0,94,0.01,,---,0.05,VWS V14.01,2013-01-28 22:47:00,
2013-01-28 17:52:00,36.0,34.4,30.08,NW,325,0.0,0.0,94,0.01,,---,0.05,VWS V14.01,2013-01-28 22:52:00,
2013-01-28 17:57:00,36.1,34.8,30.08,NW,321,0.0,0.0,95,0.01,,---,0.05,VWS V14.01,2013-01-28 22:57:00,
2013-01-28 18:00:00,36.1,34.8,30.08,SSW,204,0.0,2.0,95,0.01,,---,0.05,VWS V14.01,2013-01-28 23:00:00,
2013-01-28 18:02:00,36.1,34.8,30.08,SSW,204,0.0,0.0,95,0.01,,---,0.05,VWS V14.01,2013-01-28 23:02:00,
2013-01-28 18:07:00,36.3,35.0,30.07,West,276,0.0,1.0,95,0.01,,---,0.05,VWS V14.01,2013-01-28 23:07:00,
2013-01-28 18:12:00,36.3,35.0,30.08,West,265,0.0,1.0,95,0.01,,---,0.05,VWS V14.01,2013-01-28 23:12:00,
2013-01-28 18:17:00,36.5,35.2,30.08,West,270,0.0,1.0,95,0.01,,---,0.05,VWS V14.01,2013-01-28 23:17:00,
2013-01-28 18:22:00,36.8,35.5,30.09,NE,55,1.0,3.0,95,0.02,,---,0.06,VWS V14.01,2013-01-28 23:22:00,
2013-01-28 18:27:00,37.1,36.1,30.09,NW,325,0.0,6.0,96,0.02,,---,0.06,VWS V14.01,2013-01-28 23:27:00,
2013-01-28 18:30:00,37.2,36.2,30.08,NW,325,0.0,6.0,96,0.02,,---,0.06,VWS V14.01,2013-01-28 23:30:00,
2013-01-28 18:32:00,37.3,36.3,30.08,WSW,244,0.0,3.0,96,0.02,,---,0.06,VWS V14.01,2013-01-28 23:32:00,
2013-01-28 18:37:00,37.4,36.1,30.08,WSW,244,0.0,3.0,95,0.02,,---,0.06,VWS V14.01,2013-01-28 23:37:00,
2013-01-28 18:42:00,37.4,36.1,30.08,WNW,300,0.0,4.0,95,0.02,,---,0.06,VWS V14.01,2013-01-28 23:42:00,
2013-01-28 18:47:00,37.4,36.1,30.08,West,275,0.0,5.0,95,0.02,,---,0.06,VWS V14.01,2013-01-28 23:47:00,
2013-01-28 18:52:00,37.4,36.1,30.08,South,173,0.0,5.0,95,0.02,,---,0.06,VWS V14.01,2013-01-28 23:52:00,
2013-01-28 18:57:00,37.5,36.2,30.08,WSW,239,0.0,5.0,95,0.02,,---,0.06,VWS V14.01,2013-01-28 23:57:00,
2013-01-28 19:00:00,37.5,36.2,30.08,North,355,0.0,5.0,95,0.02,,---,0.06,VWS V14.01,2013-01-29 00:00:00,
2013-01-28 19:02:00,37.5,36.2,30.07,North,355,0.0,0.0,95,0.01,,---,0.06,VWS V14.01,2013-01-29 00:02:00,
2013-01-28 19:07:00,37.5,36.2,30.07,WNW,286,0.0,5.0,95,0.01,,---,0.06,VWS V14.01,2013-01-29 00:07:00,
2013-01-28 19:12:00,37.5,36.2,30.07,West,271,0.0,5.0,95,0.01,,---,0.06,VWS V14.01,2013-01-29 00:12:00,
2013-01-28 19:17:00,37.6,36.3,30.07,West,265,0.0,5.0,95,0.01,,---,0.06,VWS V14.01,2013-01-29 00:17:00,
2013-01-28 19:22:00,37.5,36.2,30.07,NE,43,0.0,5.0,95,0.01,,---,0.06,VWS V14.01,2013-01-29 00:22:00,
2013-01-28 19:27:00,37.5,36.2,30.07,SSE,158,2.0,5.0,95,0.01,,---,0.06,VWS V14.01,2013-01-29 00:27:00,
2013-01-28 19:30:00,37.5,36.2,30.07,SSE,153,0.0,5.0,95,0.01,,---,0.06,VWS V14.01,2013-01-29 00:30:00,
2013-01-28 19:32:00,37.5,36.2,30.06,North,5,0.0,1.0,95,0.00,,---,0.06,VWS V14.01,2013-01-29 00:32:00,
2013-01-28 19:37:00,37.7,36.4,30.06,SW,235,0.0,5.0,95,0.00,,---,0.06,VWS V14.01,2013-01-29 00:37:00,
2013-01-28 19:42:00,37.7,36.4,30.06,WSW,257,0.0,5.0,95,0.00,,---,0.06,VWS V14.01,2013-01-29 00:42:00,
2013-01-28 19:47:00,37.7,36.4,30.06,SW,221,0.0,5.0,95,0.00,,---,0.06,VWS V14.01,2013-01-29 00:47:00,
2013-01-28 19:52:00,37.7,36.4,30.05,WSW,252,0.0,5.0,95,0.00,,---,0.06,VWS V14.01,2013-01-29 00:52:00,
2013-01-28 19:57:00,37.7,36.4,30.05,North,5,0.0,5.0,95,0.00,,---,0.06,VWS V14.01,2013-01-29 00:57:00,
2013-01-28 20:00:00,37.7,36.4,30.06,West,266,0.0,5.0,95,0.00,,---,0.06,VWS V14.01,2013-01-29 01:00:00,
2013-01-28 20:02:00,37.7,36.4,30.06,West,273,1.0,3.0,95,0.00,,---,0.06,VWS V14.01,2013-01-29 01:02:00,
2013-01-28 20:07:00,37.8,36.5,30.06,WSW,255,0.0,4.0,95,0.00,,---,0.06,VWS V14.01,2013-01-29 01:07:00,
2013-01-28 20:12:00,37.8,36.5,30.05,West,270,0.0,4.0,95,0.00,,---,0.06,VWS V14.01,2013-01-29 01:12:00,
2013-01-28 20:17:00,37.8,36.5,30.06,West,272,0.0,4.0,95,0.00,,---,0.06,VWS V14.01,2013-01-29 01:17:00,
2013-01-28 20:22:00,37.9,36.6,30.06,WNW,292,0.0,4.0,95,0.00,,---,0.06,VWS V14.01,2013-01-29 01:22:00,
2013-01-28 20:27:00,38.0,36.7,30.05,WNW,292,0.0,4.0,95,0.00,,---,0.06,VWS V14.01,2013-01-29 01:27:00,
2013-01-28 20:30:00,38.0,36.7,30.05,SSE,166,0.0,4.0,95,0.00,,---,0.06,VWS V14.01,2013-01-29 01:30:00,
2013-01-28 20:32:00,38.0,36.7,30.06,WSW,252,1.0,1.0,95,0.00,,---,0.06,VWS V14.01,2013-01-29 01:32:00,
2013-01-28 20:37:00,38.0,36.7,30.05,WSW,252,0.0,2.0,95,0.00,,---,0.06,VWS V14.01,2013-01-29 01:37:00,
2013-01-28 20:42:00,38.1,36.8,30.04,WSW,250,0.0,2.0,95,0.00,,---,0.06,VWS V14.01,2013-01-29 01:42:00,
2013-01-28 20:47:00,38.1,36.5,30.04,WNW,284,0.0,3.0,94,0.00,,---,0.06,VWS V14.01,2013-01-29 01:47:00,
2013-01-28 20:52:00,38.0,36.4,30.04,SE,138,0.0,3.0,94,0.00,,---,0.06,VWS V14.01,2013-01-29 01:52:00,
2013-01-28 20:57:00,38.0,36.4,30.03,WNW,287,0.0,3.0,94,0.00,,---,0.06,VWS V14.01,2013-01-29 01:57:00,
2013-01-28 21:00:00,38.0,36.4,30.03,WSW,254,0.0,4.0,94,0.00,,---,0.06,VWS V14.01,2013-01-29 02:00:00,
2013-01-28 21:02:00,38.0,36.4,30.03,SSW,211,3.0,3.0,94,0.00,,---,0.06,VWS V14.01,2013-01-29 02:02:00,
2013-01-28 21:07:00,38.0,36.4,30.03,West,263,0.0,3.0,94,0.00,,---,0.06,VWS V14.01,2013-01-29 02:07:00,
2013-01-28 21:12:00,38.1,36.5,30.03,North,360,0.0,5.0,94,0.00,,---,0.06,VWS V14.01,2013-01-29 02:12:00,
2013-01-28 21:17:00,38.2,36.6,30.03,South,170,0.0,5.0,94,0.00,,---,0.06,VWS V14.01,2013-01-29 02:17:00,
2013-01-28 21:22:00,38.3,36.7,30.03,West,275,0.0,5.0,94,0.00,,---,0.06,VWS V14.01,2013-01-29 02:22:00,
2013-01-28 21:27:00,38.3,36.7,30.02,SW,220,0.0,5.0,94,0.00,,---,0.06,VWS V14.01,2013-01-29 02:27:00,
2013-01-28 21:30:00,38.3,36.7,30.02,SW,220,0.0,5.0,94,0.00,,---,0.06,VWS V14.01,2013-01-29 02:30:00,
2013-01-28 21:32:00,38.4,36.8,30.02,NNW,345,0.0,3.0,94,0.00,,---,0.06,VWS V14.01,2013-01-29 02:32:00,
2013-01-28 21:37:00,38.4,36.8,30.02,SSW,210,0.0,3.0,94,0.00,,---,0.06,VWS V14.01,2013-01-29 02:37:00,
2013-01-28 21:42:00,38.6,37.0,30.02,NW,313,0.0,3.0,94,0.00,,---,0.06,VWS V14.01,2013-01-29 02:42:00,
2013-01-28 21:46:00,38.9,37.6,30.02,WSW,247,0.0,4.0,95,0.00,,---,0.06,VWS V14.01,2013-01-29 02:46:00,
2013-01-28 21:51:00,39.3,38.0,30.02,SSW,212,1.0,4.0,95,0.00,,---,0.06,VWS V14.01,2013-01-29 02:51:00,
2013-01-28 21:56:00,39.8,38.5,30.02,SW,235,0.0,4.0,95,0.00,,---,0.06,VWS V14.01,2013-01-29 02:56:00,
2013-01-28 22:00:00,40.0,38.7,30.02,WNW,296,0.0,4.0,95,0.00,,---,0.06,VWS V14.01,2013-01-29 03:00:00,
2013-01-28 22:01:00,40.1,38.8,30.02,West,279,0.0,5.0,95,0.00,,---,0.06,VWS V14.01,2013-01-29 03:01:00,
2013-01-28 22:06:00,40.4,38.8,30.02,SW,221,0.0,5.0,94,0.00,,---,0.06,VWS V14.01,2013-01-29 03:06:00,
2013-01-28 22:11:00,40.7,39.1,30.02,West,270,0.0,5.0,94,0.00,,---,0.06,VWS V14.01,2013-01-29 03:11:00,
2013-01-28 22:16:00,40.8,38.9,30.02,WNW,297,2.0,5.0,93,0.00,,---,0.06,VWS V14.01,2013-01-29 03:16:00,
2013-01-28 22:21:00,40.7,38.6,30.03,WNW,300,1.0,6.0,92,0.00,,---,0.06,VWS V14.01,2013-01-29 03:21:00,
2013-01-28 22:26:00,40.7,38.6,30.02,WSW,256,0.0,6.0,92,0.00,,---,0.06,VWS V14.01,2013-01-29 03:26:00,
2013-01-28 22:30:00,40.6,38.5,30.03,WNW,295,0.0,6.0,92,0.00,,---,0.06,VWS V14.01,2013-01-29 03:30:00,
2013-01-28 22:31:00,40.6,38.5,30.02,NNW,333,0.0,2.0,92,0.00,,---,0.06,VWS V14.01,2013-01-29 03:31:00,
2013-01-28 22:36:00,40.5,38.4,30.02,WNW,286,0.0,2.0,92,0.00,,---,0.06,VWS V14.01,2013-01-29 03:36:00,
2013-01-28 22:41:00,40.5,38.6,30.02,SE,146,0.0,2.0,93,0.00,,---,0.06,VWS V14.01,2013-01-29 03:41:00,
2013-01-28 22:46:00,40.5,38.6,30.02,SE,142,0.0,2.0,93,0.00,,---,0.06,VWS V14.01,2013-01-29 03:46:00,
2013-01-28 22:51:00,40.6,38.7,30.02,SE,142,1.0,2.0,93,0.00,,---,0.06,VWS V14.01,2013-01-29 03:51:00,
2013-01-28 22:56:00,40.6,38.7,30.02,WSW,252,1.0,4.0,93,0.00,,---,0.06,VWS V14.01,2013-01-29 03:56:00,
2013-01-28 23:00:00,40.7,38.8,30.02,West,261,0.0,4.0,93,0.00,,---,0.06,VWS V14.01,2013-01-29 04:00:00,
2013-01-28 23:01:00,40.7,38.8,30.02,West,261,0.0,0.0,93,0.00,,---,0.06,VWS V14.01,2013-01-29 04:01:00,
2013-01-28 23:06:00,40.7,38.8,30.02,SSE,162,0.0,0.0,93,0.00,,---,0.06,VWS V14.01,2013-01-29 04:06:00,
2013-01-28 23:11:00,40.7,38.6,30.02,SSW,200,0.0,1.0,92,0.00,,---,0.06,VWS V14.01,2013-01-29 04:11:00,
2013-01-28 23:16:00,40.6,38.7,30.02,WSW,254,0.0,3.0,93,0.00,,---,0.06,VWS V14.01,2013-01-29 04:16:00,
2013-01-28 23:21:00,40.6,38.7,30.02,West,270,0.0,3.0,93,0.00,,---,0.06,VWS V14.01,2013-01-29 04:21:00,
2013-01-28 23:26:00,40.5,38.6,30.02,NE,55,0.0,3.0,93,0.00,,---,0.06,VWS V14.01,2013-01-29 04:26:00,
2013-01-28 23:30:00,40.4,38.3,30.02,WSW,254,1.0,3.0,92,0.00,,---,0.06,VWS V14.01,2013-01-29 04:30:00,
2013-01-28 23:31:00,40.4,38.3,30.03,WSW,256,1.0,1.0,92,0.00,,---,0.06,VWS V14.01,2013-01-29 04:31:00,
2013-01-28 23:36:00,40.3,38.2,30.02,NE,34,0.0,3.0,92,0.00,,---,0.06,VWS V14.01,2013-01-29 04:36:00,
2013-01-28 23:41:00,40.3,38.4,30.02,SSW,204,0.0,4.0,93,0.00,,---,0.06,VWS V14.01,2013-01-29 04:41:00,
2013-01-28 23:46:00,40.4,38.5,30.02,NW,309,1.0,4.0,93,0.00,,---,0.06,VWS V14.01,2013-01-29 04:46:00,
2013-01-28 23:51:00,40.5,38.6,30.02,NE,36,1.0,4.0,93,0.00,,---,0.06,VWS V14.01,2013-01-29 04:51:00,
2013-01-28 23:56:00,40.7,39.1,30.02,SW,225,1.0,5.0,94,0.00,,---,0.06,VWS V14.01,2013-01-29 04:56:00,